This demonstration page uses our WeatherBlox Daily Observations layout. Learn more.

36.17497, -115.13722

Hourly Observations for November 16, 2019

Temp ( °F °C ) Dew Point ( °F °C ) Humidity (%) Winds ( mph kmh ) Pressure ( in mb ) Visibility ( mi km ) Precip ( " mm )
12:53 am 00:53 Clear 61 16.1 21 -6.1 21 21 NW 9 15 30.06 1018 10 16.09344 0 0
1:53 am 01:53 Clear 60 15.6 21 -6.1 22 22 NW 12 19 30.06 1018 10 16.09344 0 0
2:53 am 02:53 Clear 57 13.9 21 -6.1 25 25 WNW 6 9 30.06 1018 10 16.09344 0 0
3:53 am 03:53 Clear 60 15.6 21 -6.1 22 22 NNW 13 20 30.06 1018 10 16.09344 0 0
4:53 am 04:53 Clear with Light Rain 58 14.4 20 -6.7 23 23 NNW 13 20 30.09 1019 10 16.09344 0.001 0.001
5:53 am 05:53 Clear 54 12.2 20 -6.7 26 26 NW 3 6 30.09 1019 10 16.09344 0.001 0.001
6:53 am 06:53 Sunny with Light Rain 53 11.7 20 -6.7 27 27 NW 6 9 30.12 1020 10 16.09344 0.001 0.001
7:53 am 07:53 Sunny 59 15 20 -6.7 22 22 NNW 14 22 30.12 1020 10 16.09344 0.001 0.001
8:53 am 08:53 Sunny 67 19.4 21 -6.1 17 17 N 10 17 30.15 1021 10 16.09344 0.001 0.001
9:53 am 09:53 Sunny 67 19.4 23 -5 19 19 NE 6 9 30.15 1021 10 16.09344 0.001 0.001
10:53 am 10:53 Sunny 72 22.2 22 -5.6 15 15 ENE 6 9 30.12 1020 10 16.09344 0 0
11:53 am 11:53 Sunny 73 22.8 22 -5.6 15 15 E 5 7 30.06 1018 10 16.09344 0 0
12:53 pm 12:53 Sunny 75 23.9 22 -5.6 14 14 ESE 6 9 30.03 1017 10 16.09344 0 0
1:53 pm 13:53 Sunny 76 24.4 22 -5.6 13 13 SE 5 7 30.03 1017 10 16.09344 0 0
2:53 pm 14:53 Sunny 77 25 23 -5 13 13 ESE 3 6 30.03 1017 10 16.09344 0 0
3:53 pm 15:53 Sunny 76 24.4 24 -4.4 14 14 SSE 8 13 30.03 1017 10 16.09344 0 0
4:53 pm 16:53 Clear 74 23.3 24 -4.4 15 15 VRB 3 6 30.03 1017 10 16.09344 0 0
5:53 pm 17:53 Clear 70 21.1 25 -3.9 18 18 W 9 15 30.06 1018 10 16.09344 0 0
6:53 pm 18:53 Clear 68 20 23 -5 18 18 NW 8 13 30.09 1019 10 16.09344 0 0
7:53 pm 19:53 Clear 70 21.1 22 -5.6 16 16 NW 14 22 30.09 1019 10 16.09344 0 0
8:53 pm 20:53 Clear 66 18.9 22 -5.6 19 19 ENE 6 9 30.09 1019 10 16.09344 0 0
9:53 pm 21:53 Clear 65 18.3 21 -6.1 19 19 NNW 7 11 30.12 1020 10 16.09344 0 0
10:53 pm 22:53 Clear 63 17.2 22 -5.6 21 21 N 9 15 30.12 1020 10 16.09344 0 0
11:53 pm 23:53 Clear 60 15.6 21 -6.1 22 22 Calm 30.15 1021 10 16.09344 0 0

Powered by AerisWeather